This demonstration page uses our WeatherBlox Daily Observations layout. Learn more.

Left ArrowRight Arrow

Hourly Observations for June 22, 2017

Temp ( °F °C ) Dew Point ( °F °C ) Humidity (%) Winds ( mph kmh ) Pressure ( in mb ) Visibility ( mi km ) Precip ( " mm )
12:56 am 00:56 Clear 80 26.8 63 17 55 55 S 13 20 29.71 1006 10 16 0.00 0.00
1:56 am 01:56 Clear 79 26.2 62 16.7 56 56 S 14 22 29.69 1005 10 16 0.00 0.00
2:56 am 02:56 Clear 78 25.8 62 16.6 57 57 S 12 19 29.67 1005 10 16 0.00 0.00
3:56 am 03:56 Clear 78 25.3 60 15.6 55 55 SSE 10 17 29.67 1005 10 16 0.00 0.00
4:56 am 04:56 Clear 77 24.8 59 15.1 55 55 S 8 13 29.65 1004 10 16 0.00 0.00
5:56 am 05:56 Sunny 75 23.7 59 15.2 59 59 S 9 15 29.66 1004 10 16 0.00 0.00
6:56 am 06:56 Sunny 74 23.3 59 14.8 59 59 SE 8 13 29.66 1004 10 16 0.00 0.00
7:56 am 07:56 Sunny 74 23.1 59 15.1 61 61 SE 10 17 29.66 1004 10 16 0.00 0.00
8:56 am 08:56 Sunny 75 24 61 16 61 61 SE 8 13 29.65 1004 10 16 0.00 0.00
9:56 am 09:56 Mostly Sunny 80 26.5 63 17 56 56 S 13 20 29.63 1003 10 16 0.00 0.00
10:56 am 10:56 Sunny 81 27.3 64 17.7 56 56 S 16 26 29.64 1004 10 16 0.00 0.00
11:56 am 11:56 Sunny 84 28.7 66 19 56 56 SSE 15 24 29.63 1003 10 16 0.00 0.00
12:56 pm 12:56 Mostly Sunny 87 30.3 68 20.2 55 55 SSE 10 17 29.63 1003 10 16 0.00 0.00
1:56 pm 13:56 Partly Cloudy 88 31 68 20 52 52 SSE 13 20 29.62 1003 10 16 0.00 0.00
2:56 pm 14:56 Mostly Sunny 88 31.3 69 20.5 53 53 S 10 17 29.61 1003 10 16 0.00 0.00
3:56 pm 15:56 Mostly Sunny 92 33.2 67 19.6 45 45 SSW 13 20 29.60 1002 10 16 0.00 0.00
4:56 pm 16:56 Sunny 91 32.8 67 19.6 46 46 SW 7 11 29.60 1002 10 16 0.00 0.00
5:56 pm 17:56 Sunny 89 31.5 69 20.4 52 52 W 5 7 29.59 1002 10 16 0.00 0.00
6:56 pm 18:56 Partly Cloudy 87 30.5 73 22.6 63 63 Calm 29.59 1002 10 16 0.00 0.00
7:56 pm 19:56 Mostly Sunny 85 29.3 71 21.5 63 63 SE 7 11 29.61 1003 10 16 0.00 0.00
8:56 pm 20:56 Mostly Cloudy 82 27.7 71 21.9 71 71 NNW 3 6 29.63 1004 10 16 0.00 0.00
9:56 pm 21:56 Partly Cloudy 82 28 67 19.7 61 61 N 13 20 29.66 1004 10 16 0.00 0.00
10:22 pm 22:22 Mostly Cloudy with Thunderstorms 82 28 68 20 62 62 N 10 17 29.67 1005 10 16 0.00 0.00
10:56 pm 22:56 Cloudy with Thunderstorms 80 26.7 66 19 63 63 N 14 22 29.69 1006 10 16 0.00 0.00
11:56 pm 23:56 Cloudy with Thunderstorms 75 23.9 66 19 74 74 N 17 28 29.73 1007 10 16 0.00 0.03
11:57 pm 23:57 Cloudy with Thunderstorms 75 24 66 19 74 74 N 14 22 29.73 1007 10 16 0.00 0.00

Powered by AerisWeather